Tracking 35331 objects as of 14-Sep-2026
HD Live streaming from Space Station
objects crossing your sky now

COSMOS 1813 DEB


COSMOS 1813 DEB is no longer on orbit


NORAD ID: 17855
Int'l Code: 1987-004BX
Launch date: January 15, 1987
Source: Commonwealth of Independent States (former USSR) (CIS)
Launch site: PLESETSK MISSILE AND SPACE COMPLEX (PKMTR)
Decay date: 1987-12-31

Note: This is SATELLITE DEBRIS
Your satellite tracking list
Your tracking list is empty




NASA's NSSDC Master Catalog

Two Line Element Set (TLE):
1 17855U 87004 BX 87364.87648228  .02764777 +81715-5 +20564-3 0  9995
2 17855 072.8042 145.5352 0005942 318.7037 052.5343 16.40465904052687
Source of the keplerian elements: AFSPC